FW8055 Weather Reports


time (UTC)temp
F
wind
direction
speed
knots
gust
knots
rain 1hr
in
rain 24hr
in
rain mn
in
humidity
%
barometer
mb
20260509194553 69 5 1.7 6.1 0.00 0.00 0.00 61 1018.2
20260509193044 69 323 0.9 4.3 0.00 0.00 0.00 62 1018.4
20260509191556 68 13 0.9 4.3 0.00 0.00 0.00 64 1018.5
20260509190049 67 12 0.9 4.3 0.00 0.00 0.00 65 1018.6
20260509184550 66 232 2.6 7.0 0.00 0.00 0.00 64 1018.9
20260509183116 65 25 0.0 3.5 0.00 0.00 0.00 66 1019.0
20260509181551 63 32 1.7 4.3 0.00 0.00 0.00 68 1019.0
20260509180057 63 5 0.9 4.3 0.00 0.00 0.00 68 1019.2
20260509174546 62 17 0.0 4.3 0.00 0.00 0.00 70 1019.1
20260509173056 61 351 0.9 3.5 0.00 0.00 0.00 70 1019.2
20260509171543 60 23 0.9 3.5 0.00 0.00 0.00 73 1019.4
20260509170042 59 23 1.7 4.3 0.00 0.00 0.00 73 1019.6
20260509164546 59 323 0.9 4.3 0.00 0.00 0.00 75 1019.9
20260509163051 57 360 0.9 4.3 0.00 0.00 0.00 78 1020.1
20260509161557 56 5 0.0 3.5 0.00 0.00 0.00 78 1020.2
20260509160051 56 0 0.0 2.6 0.00 0.00 0.00 79 1020.3
20260509154551 55 45 0.0 1.7 0.00 0.00 0.00 82 1020.3
20260509153059 54 14 0.9 2.6 0.00 0.00 0.00 85 1020.5
20260509151549 52 0 0.0 1.7 0.00 0.00 0.00 89 1020.5
20260509150042 51 0 0.0 1.7 0.00 0.00 0.00 92 1020.6
20260509144550 49 0 0.0 0.0 0.00 0.00 0.00 96 1020.5
20260509143048 47 0 0.0 0.0 0.00 0.00 0.00 96 1020.6
20260509141549 45 0 0.0 0.0 0.00 0.00 0.00 95 1020.7
20260509140059 44 0 0.0 0.0 0.00 0.00 0.00 95 1020.6
20260509134549 44 0 0.0 0.0 0.00 0.00 0.00 94 1020.6
20260509133042 43 0 0.0 0.0 0.00 0.00 0.00 93 1020.6
20260509131545 44 0 0.0 0.0 0.00 0.00 0.00 93 1020.5
20260509130046 44 0 0.0 0.0 0.00 0.00 0.00 93 1020.8
20260509124550 44 0 0.0 0.0 0.00 0.00 0.00 93 1020.9
20260509123045 44 0 0.0 0.0 0.00 0.00 0.00 93 1020.9
20260509121549 44 0 0.0 0.0 0.00 0.00 0.00 92 1020.8
20260509120050 45 0 0.0 0.0 0.00 0.00 0.00 93 1020.9
20260509114547 45 0 0.0 0.0 0.00 0.00 0.00 92 1021.1
20260509113044 45 0 0.0 0.0 0.00 0.00 0.00 92 1020.9
20260509111542 45 0 0.0 0.0 0.00 0.00 0.00 92 1021.0
20260509110049 46 0 0.0 0.0 0.00 0.00 0.00 91 1021.2
20260509104543 46 0 0.0 0.0 0.00 0.00 0.00 91 1021.4
20260509103100 46 0 0.0 0.0 0.00 0.00 0.00 91 1021.4
20260509101542 47 0 0.0 0.0 0.00 0.00 0.00 91 1021.5
20260509100048 47 0 0.0 0.0 0.00 0.00 0.00 91 1021.5
20260509094558 47 0 0.0 0.0 0.00 0.00 0.00 91 1021.5
20260509093043 48 0 0.0 0.0 0.00 0.00 0.00 91 1021.3
20260509091551 48 0 0.0 0.0 0.00 0.00 0.00 90 1021.6
20260509090053 49 0 0.0 0.0 0.00 0.00 0.00 89 1021.6
20260509084549 49 0 0.0 0.0 0.00 0.00 0.00 90 1021.7
20260509083052 49 0 0.0 0.0 0.00 0.00 0.00 89 1021.9
20260509081543 50 0 0.0 0.0 0.00 0.00 0.00 89 1021.8
20260509080047 50 0 0.0 0.0 0.00 0.00 0.00 88 1021.9
20260509074605 51 0 0.0 0.0 0.00 0.00 0.00 88 1021.9
20260509073101 51 0 0.0 0.0 0.00 0.00 0.00 87 1022.0
20260509071555 51 0 0.0 0.0 0.00 0.00 0.00 87 1022.1
20260509070051 52 0 0.0 0.0 0.00 0.00 0.00 86 1022.2
20260509064544 52 0 0.0 0.0 0.00 0.00 0.00 86 1022.2
20260509063057 53 0 0.0 0.0 0.00 0.00 0.00 85 1022.2
20260509061547 53 0 0.0 0.0 0.00 0.00 0.00 84 1022.2
20260509060105 53 0 0.0 0.0 0.00 0.00 0.00 84 1022.1
20260509054543 54 0 0.0 0.0 0.00 0.00 0.00 82 1022.2
20260509053057 55 0 0.0 0.0 0.00 0.00 0.00 81 1022.1
20260509051548 55 0 0.0 0.0 0.00 0.00 0.00 80 1022.0
20260509050046 56 0 0.0 0.0 0.00 0.00 0.00 79 1021.9
20260509044545 57 0 0.0 0.0 0.00 0.00 0.00 78 1021.9
20260509043054 58 0 0.0 0.0 0.00 0.00 0.00 76 1021.7
20260509041544 59 0 0.0 0.0 0.00 0.00 0.00 74 1021.7
20260509040059 60 0 0.0 0.0 0.00 0.00 0.00 72 1021.6
20260509034546 61 0 0.0 0.0 0.00 0.00 0.00 68 1021.4
20260509033109 63 0 0.0 0.9 0.00 0.00 0.00 66 1021.2
20260509031549 64 0 0.0 0.9 0.00 0.00 0.00 64 1021.1
20260509030043 65 0 0.0 4.3 0.00 0.00 0.00 60 1021.1
20260509024557 66 0 0.0 1.7 0.00 0.00 0.00 58 1021.1
20260509023046 66 5 0.0 4.3 0.00 0.00 0.00 58 1020.9
20260509021547 67 0 0.9 3.5 0.00 0.00 0.00 56 1021.0
20260509020047 67 338 1.7 5.2 0.00 0.00 0.00 55 1021.0
20260509014545 68 42 1.7 4.3 0.00 0.00 0.00 53 1020.9
20260509013047 68 360 0.9 6.1 0.00 0.00 0.00 52 1020.9
20260509011545 69 347 0.9 3.5 0.00 0.00 0.00 52 1021.0
20260509010046 69 19 1.7 7.0 0.00 0.00 0.00 50 1021.0
20260509004549 69 40 1.7 5.2 0.00 0.00 0.00 50 1021.0
20260509003047 69 0 1.7 7.8 0.00 0.00 0.00 50 1021.1
20260509001542 70 339 1.7 6.1 0.00 0.00 0.00 49 1021.0
20260509000043 70 39 1.7 5.2 0.00 0.00 0.00 47 1020.9
20260508234542 70 15 1.7 7.8 0.00 0.00 0.00 48 1021.0
20260508233045 70 331 2.6 6.1 0.00 0.00 0.00 48 1021.1
20260508231549 70 11 1.7 7.8 0.00 0.00 0.00 48 1021.1
20260508230045 70 352 2.6 6.1 0.00 0.00 0.00 49 1021.1
20260508224551 70 22 1.7 7.0 0.00 0.00 0.00 49 1021.1
20260508223042 69 5 1.7 8.7 0.00 0.00 0.00 48 1021.2
20260508221547 69 99 0.9 7.0 0.00 0.00 0.00 50 1021.3
20260508220054 68 19 0.9 5.2 0.00 0.00 0.00 51 1021.5
20260508214547 68 44 1.7 5.2 0.00 0.00 0.00 50 1021.5
20260508213047 68 219 0.9 3.5 0.00 0.00 0.00 51 1021.8
20260508211550 67 49 0.9 4.3 0.00 0.00 0.00 52 1021.9
20260508210051 66 21 0.9 7.0 0.00 0.00 0.00 55 1021.7
20260508204546 65 59 1.7 7.0 0.00 0.00 0.00 53 1022.0
20260508203046 65 336 2.6 7.0 0.00 0.00 0.00 53 1022.1
20260508201544 65 18 0.9 3.5 0.00 0.00 0.00 55 1022.0
20260508200049 64 0 0.0 5.2 0.00 0.00 0.00 55 1022.3